Location: Madrid
(40.4000°N, 3.6830°W)
Time: 13:15:40
(UTC+01:00)

ISS - Pass Details

Date: 21 March 2019
Orbit: 408 x 411 km, 51.6° (Epoch: 24 March)

Event Time Altitude Azimuth Distance (km) Brightness Sun altitude
Rises 21:57:58 0° 257° (WSW) 2,327 0.7 -28.4°
Reaches altitude 10° 22:00:12 10° 268° (W) 1,469 -0.3 -28.7°
Enters shadow 22:00:58 15° 276° (W) 1,198 -0.8 -28.9°
